CARTOSAT-1 - Orbit

View from above orbital plane
View from above orbital plane
View from above satellite
View from above satellite

Ground track
Ground track

The orbit data is extracted from the following two-line orbital elements,

1 28649U 05017A   13144.67775610  .00000999  00000-0  12805-3 0   698
2 28649 097.8718 219.9919 0002092 108.6404 251.4733 14.83457767435893
Epoch (UTC): 24 May 2013 16:15:58
Eccentricity: 0.0002092
inclination: 97.8718°
perigee height: 617 km
apogee height: 620 km
right ascension of ascending node: 219.9919°
argument of perigee: 108.6404°
revolutions per day: 14.83457767
mean anomaly at epoch: 251.4733°
orbit number at epoch: 43589

The dashed part of the orbit path shows where the satellite is in the earth's shadow,  

Developed and maintained by Chris Peat, Heavens-Above GmbH. Please read the updated FAQ before sending e-mail. Imprint. DLR